Sturgeon Bay, WI (54235)

10:44 PM CST on February 13, 2016 (GMT -0600)
City of Sturgeon Bay | | Change Station
CLOSE
Current Station
Personal Weather Station
Location: Sturgeon Bay, WI
Elevation: 633 ft
Nearby Weather Stations

Elev 633 ft 44.84 °N, 87.35 °W | Updated 10 minutes ago

Clear
Clear
-0.9 °F
Feels Like -1 °F
N
0.0
Wind Variable Wind from SE

Today
High -- | Low -- °F
--% Chance of Precip.
Yesterday
High -- | Low -- °F
Precip. -- in
Pressure 30.44 in
Visibility 10.0 miles
Clouds Clear
Windchill -1 °F
Dew Point -6 °F
Humidity 78%
Rainfall in
Snow Depth Not available.
6:53 AM 5:14 PM
Waxing Crescent, 37% visible
METAR KSUE 140435Z AUTO 23005KT 10SM CLR M17/M23 A3044 RMK AO1
Pressure 30.44 in
Visibility 10.0 miles
Clouds Clear
Windchill -1 °F
Dew Point -6 °F
Humidity 78%
Rainfall in
Snow Depth Not available.
6:53 AM 5:14 PM
Waxing Crescent, 37% visible
METAR KSUE 140435Z AUTO 23005KT 10SM CLR M17/M23 A3044 RMK AO1

10-Day Weather Forecast

Almanac

Astronomy

Feb. 13, 2016 Rise Set
Actual Time
Civil Twilight
Nautical Twilight
Astronomical Twilight
Moon
Length of Visible Light
Length of Day
Tomorrow will be .
, % of the Moon is Illuminated

Today's Extremes

State Highs State Lows

Community

WunderPhotos

Upload Photos

1,892,746 photos uploaded!

WunderBlog® & News

Nearby

Air Quality

  Air Quality AQ Index Pollutant
Not available.

Snow Depth

Station Depth Elevation

Earthquake Activity

City Distance Mag. Time & Date
Minimum magnitude displayed is 2.5.

Coastal Water Temperatures

Place Temperature

Stations

Nearby Weather Stations

Station Location Temp. Windchill Dew Point Humidity Wind Precip. Elev Updated Type
                   

Watches & Warnings

There are currently no watches in effect.